| time (UTC) | temp C | wind direction | speed KPH | gust KPH | rain 1hr cm | rain 24hr cm | rain mn cm | humidity % | barometer mb |
| 20260902024309 | 23 | 166 | 0.0 | 0.0 | 0.00 | 0.00 | 0.00 | 97 | 994.0 |
| 20260902022805 | 23 | 171 | 0.0 | 0.0 | 0.00 | 0.00 | 0.00 | 97 | 994.1 |
| 20260902021302 | 23 | 180 | 0.0 | 0.0 | 0.00 | 0.00 | 0.00 | 97 | 994.1 |
| 20260902015801 | 23 | 182 | 0.0 | 1.6 | 0.00 | 0.00 | 0.00 | 97 | 994.0 |
| 20260902014302 | 23 | 174 | 0.0 | 0.0 | 0.00 | 0.00 | 0.00 | 96 | 993.9 |
| 20260902012757 | 23 | 172 | 0.0 | 0.0 | 0.00 | 0.00 | 0.00 | 96 | 993.9 |
| 20260902011254 | 23 | 191 | 0.0 | 0.0 | 0.00 | 0.00 | 0.00 | 96 | 993.7 |
| 20260902005753 | 23 | 170 | 0.0 | 0.0 | 0.00 | 0.00 | 0.00 | 95 | 993.4 |
| 20260902004250 | 23 | 159 | 0.0 | 0.0 | 0.00 | 0.00 | 0.00 | 95 | 993.1 |
| 20260902002748 | 24 | 186 | 0.0 | 1.6 | 0.00 | 0.00 | 0.00 | 94 | 993.2 |
| 20260902001243 | 24 | 205 | 1.6 | 1.6 | 0.00 | 0.00 | 0.00 | 92 | 993.5 |
| 20260901235738 | 24 | 221 | 0.0 | 1.6 | 0.00 | 0.00 | 0.00 | 91 | 994.1 |
| 20260901234233 | 25 | 242 | 1.6 | 4.8 | 0.00 | 0.00 | 0.00 | 90 | 994.1 |
| 20260901232730 | 25 | 274 | 8.0 | 9.7 | 0.00 | 0.00 | 0.00 | 87 | 993.9 |
| 20260901231229 | 26 | 173 | 4.8 | 9.7 | 0.00 | 0.00 | 0.00 | 85 | 994.3 |
| 20260901225726 | 26 | 208 | 4.8 | 9.7 | 0.00 | 0.00 | 0.00 | 86 | 994.5 |
| 20260901224224 | 27 | 228 | 1.6 | 3.2 | 0.00 | 0.00 | 0.00 | 85 | 994.0 |
| 20260901222722 | 27 | 196 | 1.6 | 6.4 | 0.00 | 0.00 | 0.00 | 84 | 994.0 |
| 20260901221221 | 27 | 178 | 1.6 | 6.4 | 0.00 | 0.00 | 0.00 | 83 | 993.6 |
| 20260901215719 | 28 | 200 | 4.8 | 9.7 | 0.00 | 0.00 | 0.00 | 82 | 994.5 |
| 20260901214217 | 28 | 241 | 3.2 | 9.7 | 0.00 | 0.00 | 0.00 | 81 | 994.3 |
| 20260901212718 | 28 | 278 | 8.0 | 9.7 | 0.00 | 0.00 | 0.00 | 79 | 994.4 |
| 20260901211216 | 28 | 237 | 4.8 | 6.4 | 0.00 | 0.00 | 0.00 | 77 | 994.4 |
| 20260901205714 | 30 | 239 | 9.7 | 14.5 | 0.00 | 0.00 | 0.00 | 75 | 994.3 |
| 20260901204211 | 30 | 298 | 9.7 | 12.9 | 0.00 | 0.00 | 0.00 | 75 | 994.1 |
| 20260901202706 | 30 | 259 | 4.8 | 12.9 | 0.00 | 0.00 | 0.00 | 74 | 994.0 |
| 20260901201203 | 31 | 257 | 12.9 | 16.1 | 0.00 | 0.00 | 0.00 | 73 | 994.1 |
| 20260901195701 | 30 | 236 | 8.0 | 9.7 | 0.00 | 0.00 | 0.00 | 76 | 994.0 |
| 20260901194158 | 31 | 224 | 11.3 | 16.1 | 0.00 | 0.00 | 0.00 | 74 | 993.9 |
| 20260901192654 | 32 | 255 | 4.8 | 14.5 | 0.00 | 0.00 | 0.00 | 73 | 993.9 |
| 20260901191153 | 31 | 178 | 3.2 | 9.7 | 0.00 | 0.00 | 0.00 | 75 | 993.9 |
| 20260901185653 | 31 | 202 | 4.8 | 6.4 | 0.00 | 0.00 | 0.00 | 75 | 994.3 |
| 20260901184148 | 30 | 267 | 6.4 | 11.3 | 0.00 | 0.00 | 0.00 | 78 | 994.6 |
| 20260901182646 | 30 | 187 | 4.8 | 6.4 | 0.00 | 0.00 | 0.00 | 78 | 994.4 |
| 20260901181145 | 28 | 215 | 4.8 | 6.4 | 0.00 | 0.00 | 0.00 | 81 | 994.1 |
| 20260901175644 | 28 | 197 | 1.6 | 6.4 | 0.00 | 0.00 | 0.00 | 81 | 994.4 |
| 20260901174142 | 28 | 257 | 4.8 | 16.1 | 0.00 | 0.00 | 0.00 | 82 | 995.1 |
| 20260901172639 | 29 | 239 | 3.2 | 9.7 | 0.00 | 0.00 | 0.00 | 79 | 994.9 |
| 20260901171136 | 30 | 285 | 4.8 | 12.9 | 0.00 | 0.00 | 0.00 | 77 | 994.8 |
| 20260901165636 | 29 | 199 | 3.2 | 12.9 | 0.00 | 0.00 | 0.00 | 79 | 994.7 |
| 20260901164134 | 28 | 244 | 6.4 | 9.7 | 0.00 | 0.00 | 0.00 | 81 | 994.5 |
| 20260901162630 | 29 | 279 | 8.0 | 12.9 | 0.00 | 0.00 | 0.00 | 80 | 994.6 |
| 20260901161127 | 30 | 234 | 4.8 | 6.4 | 0.00 | 0.00 | 0.00 | 79 | 994.5 |
| 20260901155623 | 29 | 293 | 8.0 | 11.3 | 0.00 | 0.00 | 0.00 | 80 | 994.5 |
| 20260901154120 | 28 | 264 | 6.4 | 9.7 | 0.00 | 0.00 | 0.00 | 81 | 994.7 |
| 20260901152616 | 29 | 279 | 3.2 | 6.4 | 0.00 | 0.00 | 0.00 | 79 | 994.5 |
| 20260901151115 | 28 | 282 | 6.4 | 12.9 | 0.00 | 0.00 | 0.00 | 80 | 994.4 |
| 20260901145612 | 27 | 264 | 4.8 | 9.7 | 0.00 | 0.00 | 0.00 | 82 | 994.5 |
| 20260901144108 | 27 | 207 | 1.6 | 4.8 | 0.00 | 0.00 | 0.00 | 83 | 994.7 |
| 20260901142607 | 28 | 257 | 6.4 | 12.9 | 0.00 | 0.00 | 0.00 | 82 | 994.8 |
| 20260901141102 | 27 | 171 | 1.6 | 4.8 | 0.00 | 0.00 | 0.00 | 84 | 994.6 |
| 20260901135600 | 27 | 190 | 4.8 | 11.3 | 0.00 | 0.00 | 0.00 | 84 | 994.5 |
| 20260901134058 | 27 | 223 | 3.2 | 4.8 | 0.00 | 0.00 | 0.00 | 84 | 994.6 |
| 20260901132556 | 26 | 185 | 0.0 | 3.2 | 0.00 | 0.00 | 0.00 | 87 | 994.6 |
| 20260901131057 | 25 | 186 | 0.0 | 4.8 | 0.00 | 0.00 | 0.00 | 87 | 994.5 |
| 20260901125554 | 24 | 181 | 3.2 | 3.2 | 0.00 | 0.00 | 0.00 | 91 | 994.4 |
| 20260901124050 | 23 | 189 | 3.2 | 4.8 | 0.00 | 0.00 | 0.00 | 94 | 994.5 |
| 20260901122549 | 22 | 177 | 1.6 | 4.8 | 0.00 | 0.00 | 0.00 | 94 | 994.3 |
| 20260901121044 | 22 | 209 | 0.0 | 3.2 | 0.00 | 0.00 | 0.00 | 95 | 994.2 |
| 20260901115541 | 22 | 185 | 0.0 | 3.2 | 0.00 | 0.00 | 0.00 | 96 | 994.1 |
| 20260901114038 | 22 | 218 | 0.0 | 0.0 | 0.00 | 0.00 | 0.00 | 97 | 994.0 |
| 20260901112538 | 22 | 197 | 0.0 | 3.2 | 0.00 | 0.00 | 0.00 | 97 | 993.7 |
| 20260901111036 | 22 | 210 | 0.0 | 3.2 | 0.00 | 0.00 | 0.00 | 97 | 993.7 |
| 20260901105531 | 22 | 239 | 0.0 | 3.2 | 0.00 | 0.00 | 0.00 | 97 | 993.8 |
| 20260901104027 | 22 | 192 | 3.2 | 4.8 | 0.00 | 0.00 | 0.00 | 96 | 993.6 |
| 20260901102523 | 22 | 228 | 1.6 | 3.2 | 0.00 | 0.00 | 0.00 | 97 | 993.7 |
| 20260901101019 | 22 | 193 | 3.2 | 3.2 | 0.00 | 0.00 | 0.00 | 97 | 993.6 |
| 20260901095517 | 22 | 187 | 1.6 | 1.6 | 0.00 | 0.00 | 0.00 | 98 | 993.5 |
| 20260901094015 | 22 | 178 | 0.0 | 0.0 | 0.00 | 0.00 | 0.00 | 98 | 993.5 |
| 20260901092512 | 22 | 188 | 0.0 | 0.0 | 0.00 | 0.00 | 0.00 | 98 | 993.6 |
| 20260901091009 | 22 | 194 | 0.0 | 0.0 | 0.00 | 0.00 | 0.00 | 98 | 993.5 |
| 20260901085506 | 22 | 197 | 0.0 | 0.0 | 0.00 | 0.00 | 0.00 | 97 | 993.3 |
| 20260901084006 | 22 | 193 | 0.0 | 1.6 | 0.00 | 0.00 | 0.00 | 96 | 993.2 |
| 20260901082505 | 22 | 214 | 0.0 | 1.6 | 0.00 | 0.00 | 0.00 | 96 | 993.4 |
| 20260901081002 | 22 | 195 | 0.0 | 0.0 | 0.00 | 0.00 | 0.00 | 96 | 993.5 |
| 20260901075457 | 23 | 191 | 0.0 | 0.0 | 0.00 | 0.00 | 0.00 | 96 | 993.4 |
| 20260901073952 | 23 | 187 | 1.6 | 4.8 | 0.00 | 0.00 | 0.00 | 95 | 993.3 |
| 20260901072449 | 23 | 190 | 1.6 | 1.6 | 0.00 | 0.00 | 0.00 | 95 | 993.3 |
| 20260901070949 | 23 | 188 | 0.0 | 3.2 | 0.00 | 0.00 | 0.00 | 94 | 993.2 |
| 20260901065445 | 23 | 194 | 1.6 | 4.8 | 0.00 | 0.00 | 0.00 | 94 | 993.5 |
| 20260901063945 | 23 | 168 | 1.6 | 1.6 | 0.00 | 0.00 | 0.00 | 94 | 993.3 |
| 20260901062444 | 23 | 206 | 0.0 | 0.0 | 0.00 | 0.00 | 0.00 | 95 | 993.5 |
| 20260901060942 | 23 | 191 | 0.0 | 1.6 | 0.00 | 0.00 | 0.00 | 94 | 993.6 |
| 20260901055440 | 23 | 197 | 0.0 | 0.0 | 0.00 | 0.00 | 0.00 | 93 | 993.4 |
| 20260901053935 | 23 | 193 | 0.0 | 1.6 | 0.00 | 0.00 | 0.00 | 92 | 993.7 |
| 20260901052432 | 24 | 227 | 1.6 | 1.6 | 0.00 | 0.00 | 0.00 | 92 | 993.7 |
| 20260901050927 | 24 | 220 | 3.2 | 3.2 | 0.00 | 0.00 | 0.00 | 91 | 993.6 |
| 20260901045423 | 24 | 211 | 3.2 | 4.8 | 0.00 | 0.00 | 0.00 | 90 | 993.6 |
| 20260901043922 | 24 | 221 | 3.2 | 4.8 | 0.00 | 0.00 | 0.00 | 89 | 993.6 |
| 20260901042418 | 25 | 203 | 3.2 | 4.8 | 0.00 | 0.00 | 0.00 | 89 | 993.6 |
| 20260901040913 | 24 | 230 | 3.2 | 4.8 | 0.00 | 0.00 | 0.00 | 88 | 993.7 |
| 20260901035412 | 23 | 188 | 0.0 | 1.6 | 0.00 | 0.61 | 0.61 | 91 | 993.8 |
| 20260901033912 | 23 | 199 | 0.0 | 0.0 | 0.00 | 0.61 | 0.61 | 92 | 994.0 |
| 20260901032409 | 23 | 196 | 0.0 | 1.6 | 0.00 | 0.61 | 0.61 | 91 | 993.8 |
| 20260901030906 | 23 | 47 | 0.0 | 0.0 | 0.00 | 0.61 | 0.61 | 90 | 993.9 |
| 20260901025401 | 24 | 198 | 0.0 | 1.6 | 0.00 | 0.61 | 0.61 | 88 | 993.6 |